Rensselaer, IN

6:23 PM CST on February 05, 2016 (GMT -0600)
Jasper County

Weather History for KRZL - May, 2013

Change the Weather History Date:

Sunday, May 12, 2013

  Actual Average (KVPZ) Record (KVPZ)
Temperature  
Mean Temperature 45 °F 58 °F  
Max Temperature 55 °F 69 °F 88 °F (2011)
Min Temperature 35 °F 47 °F 34 °F (2013)
Degree Days  
Heating Degree Days 20 8  
Month to date heating degree days 112  
Since 1 July heating degree days 6171  
Cooling Degree Days 0 1  
Month to date cooling degree days 8  
Year to date cooling degree days 13  
Moisture  
Dew Point 28 °F    
Average Humidity 54    
Maximum Humidity 87    
Minimum Humidity 26    
Precipitation  
Precipitation 0.00 in 0.12 in 1.06 in (2002)
Month to date precipitation 1.54  
Year to date precipitation 10.72  
Sea Level Pressure  
Sea Level Pressure 30.09 in    
Wind  
Wind Speed 9 mph (WNW)    
Max Wind Speed 20 mph    
Max Gust Speed 25 mph    
Visibility 10 miles    
Events      
T = Trace of Precipitation, MM = Missing Value Source: NWS Daily Summary

Daily Weather History Graph

Daily Weather History Graph

Search for Another Location

Airport or City:

Trip Planner

Search our weather history database for the weather conditions in past years. The results will help you decide how hot, cold, wet, or windy it might be!

Date:

Astronomy

May. 12, 2013 Rise Set
Actual Time 5:33 AM CDT 7:56 PM CDT
Civil Twilight 5:02 AM CDT 8:28 PM CDT
Nautical Twilight 4:24 AM CDT 9:06 PM CDT
Astronomical Twilight 3:42 AM CDT 9:49 PM CDT
Moon 7:28 AM CDT (5/12) 10:23 PM CDT (5/12)
Length of Visible Light 15h 25m
Length of Day
14h 23m
Waxing Crescent, 7% of the Moon is Illuminated
May 12
Waxing Crescent
May 17
First Quarter
May 24
Full
May 31
Last Quarter
Jun 8
New

Hourly Weather History & Observations

Time (CDT) Temp. Windchill Dew Point Humidity Pressure Visibility Wind Dir Wind Speed Gust Speed Precip Events Conditions
12:15 AM 41.0 °F 36.4 °F 32.0 °F 70% 30.05 in 10.0 mi West 6.9 mph - N/A   Unknown
12:35 AM 41.0 °F 36.4 °F 32.0 °F 70% 30.05 in 10.0 mi West 6.9 mph - N/A   Unknown
12:55 AM 41.0 °F 37.1 °F 32.0 °F 70% 30.05 in 10.0 mi West 5.8 mph - N/A   Unknown
1:15 AM 41.0 °F 38.0 °F 32.0 °F 70% 30.05 in 10.0 mi West 4.6 mph - N/A   Unknown
1:35 AM 39.2 °F 35.9 °F 32.0 °F 75% 30.05 in 10.0 mi West 4.6 mph - N/A   Unknown
1:55 AM 39.2 °F 35.0 °F 32.0 °F 75% 30.05 in 10.0 mi West 5.8 mph - N/A   Unknown
2:15 AM 37.4 °F 32.8 °F 32.0 °F 81% 30.05 in 10.0 mi West 5.8 mph - N/A   Unknown
2:35 AM 37.4 °F 32.8 °F 32.0 °F 81% 30.05 in 10.0 mi WSW 5.8 mph - N/A   Unknown
2:55 AM 37.4 °F 32.8 °F 32.0 °F 81% 30.05 in 10.0 mi WSW 5.8 mph - N/A   Unknown
3:15 AM 35.6 °F 30.7 °F 32.0 °F 87% 30.05 in 10.0 mi West 5.8 mph - N/A   Unknown
3:35 AM 37.4 °F 32.8 °F 32.0 °F 81% 30.05 in 10.0 mi West 5.8 mph - N/A   Unknown
3:55 AM 35.6 °F 31.7 °F 32.0 °F 87% 30.06 in 10.0 mi West 4.6 mph - N/A   Unknown
4:15 AM 35.6 °F 30.7 °F 32.0 °F 87% 30.06 in 10.0 mi WSW 5.8 mph - N/A   Unknown
4:35 AM 35.6 °F 29.2 °F 32.0 °F 87% 30.06 in 10.0 mi West 8.1 mph - N/A   Unknown
4:55 AM 37.4 °F 32.1 °F 32.0 °F 81% 30.06 in 10.0 mi West 6.9 mph - N/A   Unknown
5:15 AM 37.4 °F 32.8 °F 32.0 °F 81% 30.06 in 10.0 mi West 5.8 mph - N/A   Unknown
5:35 AM 37.4 °F 32.1 °F 32.0 °F 81% 30.07 in 10.0 mi West 6.9 mph - N/A   Unknown
5:55 AM 37.4 °F 32.1 °F 32.0 °F 81% 30.07 in 10.0 mi West 6.9 mph - N/A   Unknown
6:15 AM 37.4 °F 31.4 °F 32.0 °F 81% 30.08 in 10.0 mi West 8.1 mph - N/A   Unknown
6:35 AM 37.4 °F 31.4 °F 32.0 °F 81% 30.08 in 10.0 mi WNW 8.1 mph - N/A   Unknown
7:15 AM 41.0 °F 34.7 °F 32.0 °F 70% 30.09 in 10.0 mi WNW 10.4 mph 18.4 mph N/A   Unknown
7:35 AM 41.0 °F 33.9 °F 32.0 °F 70% 30.09 in 10.0 mi WNW 12.7 mph 16.1 mph N/A   Unknown
7:55 AM 42.8 °F 37.0 °F 32.0 °F 66% 30.10 in 10.0 mi West 10.4 mph - N/A   Unknown
8:15 AM 42.8 °F 35.4 °F 32.0 °F 66% 30.10 in 10.0 mi WNW 15.0 mph 18.4 mph N/A   Unknown
8:35 AM 44.6 °F 37.8 °F 28.4 °F 53% 30.11 in 10.0 mi NW 15.0 mph 21.9 mph N/A   Unknown
8:55 AM 44.6 °F 37.8 °F 28.4 °F 53% 30.11 in 10.0 mi NW 15.0 mph 24.2 mph N/A   Unknown
9:15 AM 46.4 °F 40.4 °F 28.4 °F 50% 30.11 in 10.0 mi WNW 13.8 mph 21.9 mph N/A   Unknown
9:35 AM 46.4 °F 40.1 °F 26.6 °F 46% 30.11 in 10.0 mi NW 15.0 mph 23.0 mph N/A   Unknown
9:55 AM 46.4 °F 40.4 °F 26.6 °F 46% 30.11 in 10.0 mi WNW 13.8 mph 20.7 mph N/A   Unknown
10:15 AM 46.4 °F 40.7 °F 26.6 °F 46% 30.11 in 10.0 mi NW 12.7 mph 19.6 mph N/A   Unknown
10:35 AM 46.4 °F 40.7 °F 26.6 °F 46% 30.12 in 10.0 mi West 12.7 mph 20.7 mph N/A   Unknown
10:55 AM 46.4 °F 40.1 °F 26.6 °F 46% 30.12 in 10.0 mi WNW 15.0 mph 19.6 mph N/A   Unknown
11:15 AM 48.2 °F - 26.6 °F 43% 30.12 in 10.0 mi WNW 12.7 mph 19.6 mph N/A   Unknown
11:35 AM 50.0 °F - 26.6 °F 40% 30.12 in 10.0 mi WNW 15.0 mph 19.6 mph N/A   Unknown
11:55 AM 50.0 °F - 28.4 °F 43% 30.12 in 10.0 mi WNW 12.7 mph - N/A   Unknown
12:15 PM 50.0 °F - 26.6 °F 40% 30.12 in 10.0 mi West 15.0 mph 23.0 mph N/A   Unknown
12:35 PM 51.8 °F - 24.8 °F 35% 30.12 in 10.0 mi WNW 16.1 mph 24.2 mph N/A   Unknown
12:55 PM 50.0 °F - 26.6 °F 40% 30.12 in 10.0 mi West 15.0 mph 21.9 mph N/A   Unknown
1:15 PM 51.8 °F - 26.6 °F 38% 30.12 in 10.0 mi WNW 13.8 mph 24.2 mph N/A   Unknown
1:35 PM 51.8 °F - 24.8 °F 35% 30.12 in 10.0 mi West 15.0 mph 20.7 mph N/A   Unknown
1:55 PM 53.6 °F - 24.8 °F 33% 30.11 in 10.0 mi WNW 17.3 mph 24.2 mph N/A   Unknown
2:15 PM 51.8 °F - 23.0 °F 33% 30.11 in 10.0 mi WNW 15.0 mph 25.3 mph N/A   Unknown
2:35 PM 53.6 °F - 23.0 °F 30% 30.11 in 10.0 mi West 16.1 mph 24.2 mph N/A   Unknown
2:55 PM 53.6 °F - 23.0 °F 30% 30.10 in 10.0 mi West 17.3 mph 23.0 mph N/A   Unknown
3:15 PM 53.6 °F - 23.0 °F 30% 30.10 in 10.0 mi West 19.6 mph 24.2 mph N/A   Unknown
3:35 PM 53.6 °F - 23.0 °F 30% 30.09 in 10.0 mi NW 11.5 mph 19.6 mph N/A   Unknown
3:55 PM 53.6 °F - 21.2 °F 28% 30.09 in 10.0 mi WNW 15.0 mph 21.9 mph N/A   Unknown
4:15 PM 55.4 °F - 23.0 °F 29% 30.08 in 10.0 mi NW 13.8 mph 20.7 mph N/A   Unknown
4:35 PM 53.6 °F - 21.2 °F 28% 30.08 in 10.0 mi WNW 11.5 mph 18.4 mph N/A   Unknown
4:55 PM 55.4 °F - 21.2 °F 26% 30.08 in 10.0 mi West 13.8 mph 18.4 mph N/A   Unknown
5:15 PM 53.6 °F - 21.2 °F 28% 30.08 in 10.0 mi WNW 12.7 mph 19.6 mph N/A   Unknown
5:35 PM 55.4 °F - 21.2 °F 26% 30.08 in 10.0 mi West 12.7 mph 20.7 mph N/A   Unknown
5:55 PM 53.6 °F - 23.0 °F 30% 30.08 in 10.0 mi WNW 10.4 mph - N/A   Unknown
6:15 PM 53.6 °F - 23.0 °F 30% 30.08 in 10.0 mi NW 10.4 mph 18.4 mph N/A   Unknown
6:35 PM 53.6 °F - 21.2 °F 28% 30.08 in 10.0 mi NW 11.5 mph 18.4 mph N/A   Unknown
6:55 PM 53.6 °F - 21.2 °F 28% 30.08 in 10.0 mi WNW 9.2 mph - N/A   Unknown
7:15 PM 51.8 °F - 23.0 °F 33% 30.08 in 10.0 mi NW 9.2 mph - N/A   Unknown
7:35 PM 51.8 °F - 23.0 °F 33% 30.08 in 10.0 mi WNW 8.1 mph - N/A   Unknown
7:55 PM 50.0 °F - 24.8 °F 37% 30.09 in 10.0 mi NW 4.6 mph - N/A   Unknown
8:15 PM 46.4 °F 45.2 °F 26.6 °F 46% 30.09 in 10.0 mi NW 3.5 mph - N/A   Unknown
8:35 PM 46.4 °F - 26.6 °F 46% 30.10 in 10.0 mi Calm Calm - N/A   Unknown
8:55 PM 46.4 °F - 26.6 °F 46% 30.11 in 10.0 mi Calm Calm - N/A   Unknown
9:15 PM 44.6 °F - 28.4 °F 53% 30.11 in 10.0 mi Calm Calm - N/A   Unknown
9:35 PM 42.8 °F - 30.2 °F 61% 30.12 in 10.0 mi Calm Calm - N/A   Unknown
9:55 PM 42.8 °F - 30.2 °F 61% 30.12 in 10.0 mi Calm Calm - N/A   Unknown
10:15 PM 44.6 °F 42.2 °F 26.6 °F 49% 30.12 in 10.0 mi ENE 4.6 mph - N/A   Unknown
10:35 PM 42.8 °F 41.1 °F 30.2 °F 61% 30.12 in 10.0 mi ENE 3.5 mph - N/A   Unknown
10:55 PM 41.0 °F 39.0 °F 30.2 °F 65% 30.12 in 10.0 mi ESE 3.5 mph - N/A   Unknown
11:15 PM 41.0 °F - 32.0 °F 70% 30.13 in 10.0 mi Calm Calm - N/A   Unknown
11:35 PM 41.0 °F 38.0 °F 30.2 °F 65% 30.13 in 10.0 mi NW 4.6 mph - N/A   Unknown
11:55 PM 41.0 °F - 30.2 °F 65% 30.12 in 10.0 mi Calm Calm - N/A   Unknown